FW8496 Weather Reports


Display with metric or nautical units.
time (UTC)temp
F
wind
direction
speed
MPH
gust
MPH
rain 1hr
in
rain 24hr
in
rain mn
in
humidity
%
barometer
mb
20260903133542 63 24 5.0 9.0 0.00 0.00 0.00 52 1024.0
20260903133053 63 27 3.0 6.0 0.00 0.00 0.00 52 1024.0
20260903132542 63 33 3.0 8.0 0.00 0.00 0.00 52 1024.0
20260903132044 62 28 3.0 8.0 0.00 0.00 0.00 52 1024.0
20260903131606 62 38 4.0 8.0 0.00 0.00 0.00 52 1023.9
20260903131042 62 326 4.0 8.0 0.00 0.00 0.00 52 1023.9
20260903130543 62 36 5.0 8.0 0.00 0.00 0.00 52 1023.8
20260903130057 62 44 4.0 8.0 0.00 0.00 0.00 52 1023.7
20260903125542 61 42 4.0 8.0 0.00 0.00 0.00 52 1023.5
20260903125043 62 33 4.0 7.0 0.00 0.00 0.00 51 1023.5
20260903124555 62 345 3.0 7.0 0.00 0.00 0.00 50 1023.6
20260903124042 62 17 4.0 7.0 0.00 0.00 0.00 51 1023.7
20260903123542 62 51 4.0 9.0 0.00 0.00 0.00 51 1023.5
20260903123056 62 36 5.0 9.0 0.00 0.00 0.00 51 1023.5
20260903122543 62 51 4.0 7.0 0.00 0.00 0.00 50 1023.4
20260903122043 61 52 4.0 9.0 0.00 0.00 0.00 50 1023.4
20260903121623 61 50 5.0 9.0 0.00 0.00 0.00 50 1023.2
20260903121043 61 46 5.0 8.0 0.00 0.00 0.00 49 1023.2
20260903120545 61 43 3.0 7.0 0.00 0.00 0.00 48 1023.2
20260903120055 61 24 4.0 7.0 0.00 0.00 0.00 48 1023.1
20260903115545 61 17 3.0 7.0 0.00 0.00 0.00 48 1023.1
20260903115043 61 19 4.0 5.0 0.00 0.00 0.00 48 1023.1
20260903114552 61 5 4.0 5.0 0.00 0.00 0.00 48 1023.2
20260903114042 61 27 3.0 5.0 0.00 0.00 0.00 47 1023.1
20260903113542 61 5 3.0 5.0 0.00 0.00 0.00 47 1023.2
20260903113051 61 5 4.0 5.0 0.00 0.00 0.00 47 1023.2
20260903112543 61 5 3.0 4.0 0.00 0.00 0.00 46 1023.1
20260903112043 61 5 2.0 4.0 0.00 0.00 0.00 46 1023.1
20260903111551 61 5 3.0 5.0 0.00 0.00 0.00 46 1023.1
20260903111042 61 5 3.0 5.0 0.00 0.00 0.00 46 1023.1
20260903110547 62 5 3.0 5.0 0.00 0.00 0.00 45 1023.0
20260903110058 62 5 3.0 5.0 0.00 0.00 0.00 45 1023.0
20260903105543 62 5 3.0 6.0 0.00 0.00 0.00 45 1022.9
20260903105043 63 11 4.0 6.0 0.00 0.00 0.00 44 1022.9
20260903104605 63 34 2.0 4.0 0.00 0.00 0.00 44 1022.9
20260903104042 64 34 2.0 5.0 0.00 0.00 0.00 43 1022.9
20260903103542 64 34 3.0 6.0 0.00 0.00 0.00 43 1022.9
20260903103053 64 42 3.0 6.0 0.00 0.00 0.00 42 1022.9
20260903102545 64 49 3.0 6.0 0.00 0.00 0.00 42 1022.8
20260903102042 64 44 3.0 6.0 0.00 0.00 0.00 42 1022.7
20260903101602 64 39 3.0 6.0 0.00 0.00 0.00 42 1022.7
20260903101042 64 32 4.0 6.0 0.00 0.00 0.00 41 1022.6
20260903100542 64 27 3.0 7.0 0.00 0.00 0.00 41 1022.7
20260903100059 64 360 2.0 7.0 0.00 0.00 0.00 41 1022.7
20260903095543 64 15 4.0 7.0 0.00 0.00 0.00 41 1022.8
20260903095045 64 49 3.0 7.0 0.00 0.00 0.00 41 1022.7
20260903094611 64 43 4.0 9.0 0.00 0.00 0.00 41 1022.7
20260903094044 64 51 5.0 9.0 0.00 0.00 0.00 41 1022.6
20260903093542 64 55 5.0 9.0 0.00 0.00 0.00 41 1022.6
20260903093106 64 51 5.0 8.0 0.00 0.00 0.00 41 1022.6
20260903092542 64 42 5.0 7.0 0.00 0.00 0.00 41 1022.7
20260903092043 64 22 3.0 6.0 0.00 0.00 0.00 41 1022.7
20260903091558 64 22 3.0 9.0 0.00 0.00 0.00 40 1022.7
20260903091043 64 37 5.0 9.0 0.00 0.00 0.00 40 1022.5
20260903090542 64 38 5.0 8.0 0.00 0.00 0.00 41 1022.6
20260903090109 63 35 3.0 5.0 0.00 0.00 0.00 41 1022.7
20260903085547 63 48 3.0 5.0 0.00 0.00 0.00 41 1022.7
20260903085042 63 325 3.0 5.0 0.00 0.00 0.00 42 1022.7
20260903084556 63 325 2.0 5.0 0.00 0.00 0.00 42 1022.8
20260903084042 63 325 3.0 6.0 0.00 0.00 0.00 42 1022.9
20260903083542 64 325 3.0 6.0 0.00 0.00 0.00 43 1022.9
20260903083059 63 325 4.0 8.0 0.00 0.00 0.00 42 1022.9
20260903082542 63 325 4.0 8.0 0.00 0.00 0.00 42 1022.9
20260903082042 63 335 3.0 5.0 0.00 0.00 0.00 42 1023.0
20260903081555 62 338 3.0 5.0 0.00 0.00 0.00 42 1022.9
20260903081042 63 69 1.0 5.0 0.00 0.00 0.00 44 1022.9
20260903080542 63 69 4.0 5.0 0.00 0.00 0.00 43 1022.9
20260903080054 63 80 2.0 5.0 0.00 0.00 0.00 43 1022.9
20260903075543 63 80 1.0 5.0 0.00 0.00 0.00 43 1022.9
20260903075042 63 80 3.0 7.0 0.00 0.00 0.00 43 1022.9
20260903074552 63 84 4.0 7.0 0.00 0.00 0.00 43 1022.8
20260903074042 63 80 4.0 7.0 0.00 0.00 0.00 42 1022.8
20260903073543 63 80 3.0 7.0 0.00 0.00 0.00 42 1022.9
20260903073057 63 66 4.0 7.0 0.00 0.00 0.00 42 1022.8
20260903072543 63 60 4.0 7.0 0.00 0.00 0.00 43 1022.9
20260903072042 63 65 4.0 7.0 0.00 0.00 0.00 44 1022.9
20260903071557 63 70 4.0 8.0 0.00 0.00 0.00 44 1022.9
20260903071045 63 71 5.0 8.0 0.00 0.00 0.00 44 1022.9
20260903070542 63 69 5.0 8.0 0.00 0.00 0.00 44 1023.0
20260903070059 62 81 5.0 8.0 0.00 0.00 0.00 43 1023.0
20260903065545 62 80 4.0 7.0 0.00 0.00 0.00 43 1022.9
20260903065042 62 77 4.0 7.0 0.00 0.00 0.00 43 1022.9
20260903064559 62 77 5.0 7.0 0.00 0.00 0.00 43 1022.8
20260903064042 63 82 5.0 7.0 0.00 0.00 0.00 43 1022.8
20260903063544 63 90 4.0 6.0 0.00 0.00 0.00 43 1022.9
20260903063052 63 90 3.0 6.0 0.00 0.00 0.00 43 1023.0
20260903062543 63 88 2.0 4.0 0.00 0.00 0.00 43 1023.0
20260903062043 63 88 3.0 4.0 0.00 0.00 0.00 43 1023.1
20260903061552 63 88 3.0 4.0 0.00 0.00 0.00 43 1023.1
20260903061043 63 88 2.0 4.0 0.00 0.00 0.00 43 1023.1
20260903060543 63 88 2.0 4.0 0.00 0.00 0.00 44 1023.1
20260903060120 64 81 2.0 4.0 0.00 0.00 0.00 43 1023.1
20260903055543 64 81 2.0 5.0 0.00 0.00 0.00 43 1023.2
20260903055042 64 81 3.0 5.0 0.00 0.00 0.00 43 1023.1
20260903054602 64 81 2.0 4.0 0.00 0.00 0.00 43 1023.1
20260903054046 65 81 2.0 4.0 0.00 0.00 0.00 43 1023.1
20260903053542 65 81 2.0 4.0 0.00 0.00 0.00 43 1023.1
20260903053104 65 81 2.0 4.0 0.00 0.00 0.00 45 1023.1
20260903052543 65 81 2.0 4.0 0.00 0.00 0.00 41 1023.0
20260903052044 65 81 3.0 5.0 0.00 0.00 0.00 40 1022.9
20260903051555 65 81 3.0 5.0 0.00 0.00 0.00 40 1022.9
20260903051044 65 81 3.0 5.0 0.00 0.00 0.00 41 1023.0
20260903050543 65 81 3.0 5.0 0.00 0.00 0.00 42 1022.9
20260903050053 66 82 3.0 5.0 0.00 0.00 0.00 42 1022.9
20260903045543 66 82 3.0 4.0 0.00 0.00 0.00 42 1022.9
20260903045044 66 107 1.0 3.0 0.00 0.00 0.00 42 1023.0
20260903044557 66 107 2.0 4.0 0.00 0.00 0.00 42 1023.0
20260903044043 67 107 2.0 4.0 0.00 0.00 0.00 41 1023.0
20260903043543 67 147 2.0 4.0 0.00 0.00 0.00 42 1023.1
20260903043100 67 147 1.0 3.0 0.00 0.00 0.00 43 1023.1
20260903042543 68 147 1.0 3.0 0.00 0.00 0.00 42 1023.1
20260903042043 68 147 1.0 3.0 0.00 0.00 0.00 43 1023.2
20260903041556 69 147 1.0 2.0 0.00 0.00 0.00 42 1023.2
20260903041043 69 0 0.0 2.0 0.00 0.00 0.00 42 1023.2
20260903040546 69 0 0.0 3.0 0.00 0.00 0.00 42 1023.3
20260903040051 69 0 1.0 3.0 0.00 0.00 0.00 36 1023.3
20260903035543 69 147 1.0 2.0 0.00 0.00 0.00 36 1023.2
20260903035043 69 0 0.0 2.0 0.00 0.00 0.00 37 1023.2
20260903034557 70 0 0.0 1.0 0.00 0.00 0.00 37 1023.1
20260903034043 70 0 0.0 2.0 0.00 0.00 0.00 38 1023.0
20260903033546 70 147 0.0 2.0 0.00 0.00 0.00 38 1022.9
20260903033054 70 147 1.0 2.0 0.00 0.00 0.00 41 1022.9
20260903032544 71 147 0.0 2.0 0.00 0.00 0.00 38 1022.8
20260903032045 71 147 0.0 2.0 0.00 0.00 0.00 37 1022.7
20260903031552 71 147 0.0 2.0 0.00 0.00 0.00 36 1022.7
20260903031042 71 147 0.0 2.0 0.00 0.00 0.00 37 1022.7
20260903030542 72 0 0.0 2.0 0.00 0.00 0.00 37 1022.7
20260903030053 72 0 0.0 2.0 0.00 0.00 0.00 36 1022.7
20260903025543 72 0 0.0 2.0 0.00 0.00 0.00 36 1022.6
20260903025042 73 0 0.0 2.0 0.00 0.00 0.00 36 1022.5
20260903024558 73 147 0.0 2.0 0.00 0.00 0.00 36 1022.4
20260903024041 73 0 0.0 2.0 0.00 0.00 0.00 36 1022.3
20260903023542 74 0 0.0 3.0 0.00 0.00 0.00 35 1022.4
20260903023053 74 147 0.0 3.0 0.00 0.00 0.00 35 1022.3
20260903022542 75 0 0.0 3.0 0.00 0.00 0.00 34 1022.3
20260903022042 75 0 1.0 3.0 0.00 0.00 0.00 32 1022.2
20260903021554 76 0 0.0 2.0 0.00 0.00 0.00 32 1022.2
20260903021043 76 238 0.0 2.0 0.00 0.00 0.00 32 1022.2
20260903020542 76 0 0.0 2.0 0.00 0.00 0.00 31 1022.1
20260903020057 77 0 0.0 3.0 0.00 0.00 0.00 30 1022.1
20260903015542 77 0 1.0 5.0 0.00 0.00 0.00 30 1022.1
20260903015043 78 238 2.0 5.0 0.00 0.00 0.00 29 1022.1
20260903014624 78 257 2.0 5.0 0.00 0.00 0.00 29 1022.0
20260903014042 79 227 3.0 7.0 0.00 0.00 0.00 28 1022.0
20260903013543 79 224 2.0 7.0 0.00 0.00 0.00 28 1022.0
20260903013100 80 242 2.0 6.0 0.00 0.00 0.00 27 1022.0
20260903012542 80 242 2.0 8.0 0.00 0.00 0.00 27 1022.0
20260903012042 80 246 3.0 8.0 0.00 0.00 0.00 27 1022.0
20260903011605 81 244 3.0 8.0 0.00 0.00 0.00 27 1022.0
20260903011042 81 247 4.0 8.0 0.00 0.00 0.00 27 1022.0
20260903010542 81 263 1.0 10.0 0.00 0.00 0.00 26 1022.0
20260903010051 81 272 3.0 10.0 0.00 0.00 0.00 26 1022.0
20260903005545 82 278 5.0 12.0 0.00 0.00 0.00 25 1022.0
20260903005042 82 255 8.0 13.0 0.00 0.00 0.00 25 1022.1
20260903004549 83 278 7.0 13.0 0.00 0.00 0.00 25 1022.0
20260903004043 83 263 6.0 16.0 0.00 0.00 0.00 25 1022.0
20260903003543 83 248 7.0 16.0 0.00 0.00 0.00 24 1022.0
20260903003057 84 208 10.0 15.0 0.00 0.00 0.00 24 1022.0
20260903002543 84 244 6.0 13.0 0.00 0.00 0.00 24 1022.0
20260903002043 84 235 5.0 11.0 0.00 0.00 0.00 25 1022.0
20260903001601 84 248 6.0 11.0 0.00 0.00 0.00 24 1022.0
20260903001043 84 269 3.0 7.0 0.00 0.00 0.00 24 1022.2
20260903000543 84 247 1.0 11.0 0.00 0.00 0.00 24 1022.1
20260903000057 83 255 5.0 15.0 0.00 0.00 0.00 25 1022.3
20260902235547 83 263 5.0 15.0 0.00 0.00 0.00 25 1022.3
20260902235043 84 243 6.0 15.0 0.00 0.00 0.00 24 1022.3
20260902234601 85 248 8.0 16.0 0.00 0.00 0.00 23 1022.3
20260902234043 87 265 8.0 16.0 0.00 0.00 0.00 22 1022.2
20260902233543 87 253 5.0 14.0 0.00 0.00 0.00 22 1022.3
20260902233057 87 226 4.0 13.0 0.00 0.00 0.00 23 1022.3
20260902232542 87 209 3.0 14.0 0.00 0.00 0.00 22 1022.3
20260902232045 87 256 6.0 14.0 0.00 0.00 0.00 23 1022.4
20260902231554 87 244 8.0 14.0 0.00 0.00 0.00 22 1022.4
20260902231044 87 175 5.0 14.0 0.00 0.00 0.00 22 1022.4
20260902230546 87 227 7.0 11.0 0.00 0.00 0.00 24 1022.4
20260902230103 87 214 5.0 18.0 0.00 0.00 0.00 24 1022.4
20260902225546 87 202 5.0 18.0 0.00 0.00 0.00 23 1022.5
20260902225043 87 232 9.0 17.0 0.00 0.00 0.00 24 1022.6
20260902224607 87 289 10.0 16.0 0.00 0.00 0.00 24 1022.5
20260902224043 87 245 8.0 16.0 0.00 0.00 0.00 24 1022.6
20260902223543 86 243 2.0 11.0 0.00 0.00 0.00 25 1022.5
20260902223102 85 0 1.0 18.0 0.00 0.00 0.00 24 1022.5
20260902222544 84 217 9.0 18.0 0.00 0.00 0.00 25 1022.8
20260902222043 85 246 9.0 17.0 0.00 0.00 0.00 24 1022.7
20260902221553 86 253 11.0 17.0 0.00 0.00 0.00 23 1022.8
20260902221043 88 217 9.0 17.0 0.00 0.00 0.00 23 1022.7
20260902220546 88 242 9.0 16.0 0.00 0.00 0.00 23 1022.8
20260902220105 87 215 4.0 14.0 0.00 0.00 0.00 24 1022.7
20260902215544 87 163 4.0 16.0 0.00 0.00 0.00 24 1022.8
20260902215042 87 231 7.0 18.0 0.00 0.00 0.00 23 1022.9
20260902214604 87 242 7.0 20.0 0.00 0.00 0.00 22 1022.9
20260902214046 88 241 11.0 20.0 0.00 0.00 0.00 22 1022.9
20260902213546 88 245 6.0 17.0 0.00 0.00 0.00 21 1022.9
20260902213047 88 252 7.0 17.0 0.00 0.00 0.00 22 1022.9
20260902212543 88 274 7.0 17.0 0.00 0.00 0.00 22 1023.0
20260902212043 87 191 5.0 16.0 0.00 0.00 0.00 22 1023.1
20260902211554 87 162 6.0 16.0 0.00 0.00 0.00 22 1023.1
20260902211043 88 179 9.0 16.0 0.00 0.00 0.00 22 1023.2
20260902210544 88 300 6.0 14.0 0.00 0.00 0.00 24 1023.3
20260902210052 88 284 2.0 15.0 0.00 0.00 0.00 24 1023.3
20260902205541 88 249 7.0 17.0 0.00 0.00 0.00 23 1023.5
20260902205042 88 270 7.0 17.0 0.00 0.00 0.00 24 1023.5
20260902204552 87 153 5.0 13.0 0.00 0.00 0.00 25 1023.7
20260902204041 87 228 6.0 13.0 0.00 0.00 0.00 25 1023.9
20260902203544 87 184 3.0 13.0 0.00 0.00 0.00 25 1024.0
20260902203050 87 194 6.0 18.0 0.00 0.00 0.00 25 1024.0
20260902202541 88 265 7.0 18.0 0.00 0.00 0.00 25 1024.2
20260902202041 88 192 8.0 18.0 0.00 0.00 0.00 25 1024.1
20260902201558 87 196 5.0 14.0 0.00 0.00 0.00 26 1024.2
20260902201043 87 188 6.0 17.0 0.00 0.00 0.00 26 1024.2
20260902200541 87 219 5.0 18.0 0.00 0.00 0.00 27 1024.3
20260902200054 87 320 11.0 18.0 0.00 0.00 0.00 26 1024.5
20260902195544 87 231 8.0 16.0 0.00 0.00 0.00 27 1024.4
20260902195040 87 234 6.0 19.0 0.00 0.00 0.00 27 1024.4
20260902194554 87 234 9.0 20.0 0.00 0.00 0.00 27 1024.4
20260902194044 87 165 9.0 20.0 0.00 0.00 0.00 26 1024.4
20260902193542 87 227 8.0 17.0 0.00 0.00 0.00 27 1024.6
20260902193051 87 239 7.0 15.0 0.00 0.00 0.00 27 1024.6
20260902192544 87 178 3.0 9.0 0.00 0.00 0.00 29 1024.7
20260902192042 86 177 2.0 10.0 0.00 0.00 0.00 30 1024.7
20260902191559 87 0 3.0 12.0 0.00 0.00 0.00 29 1024.8
20260902191041 87 246 5.0 12.0 0.00 0.00 0.00 29 1024.9
20260902190545 88 190 3.0 10.0 0.00 0.00 0.00 29 1025.0
20260902190054 87 174 4.0 10.0 0.00 0.00 0.00 28 1025.0
20260902185541 87 322 2.0 8.0 0.00 0.00 0.00 29 1025.1
20260902185040 86 248 2.0 9.0 0.00 0.00 0.00 29 1025.2
20260902184551 86 309 4.0 9.0 0.00 0.00 0.00 30 1025.2
20260902184041 85 279 3.0 13.0 0.00 0.00 0.00 30 1025.4
20260902183542 84 164 2.0 13.0 0.00 0.00 0.00 31 1025.3
20260902183101 84 300 8.0 13.0 0.00 0.00 0.00 32 1025.7
20260902182541 84 54 2.0 11.0 0.00 0.00 0.00 31 1025.6
20260902182041 83 252 2.0 11.0 0.00 0.00 0.00 31 1025.7
20260902181554 83 301 5.0 12.0 0.00 0.00 0.00 32 1025.7
20260902181043 82 265 3.0 12.0 0.00 0.00 0.00 31 1025.8
20260902180542 82 322 6.0 12.0 0.00 0.00 0.00 32 1025.8
20260902180056 81 0 1.0 8.0 0.00 0.00 0.00 32 1025.9
20260902175543 80 48 3.0 8.0 0.00 0.00 0.00 32 1025.9
20260902175045 80 335 3.0 9.0 0.00 0.00 0.00 34 1026.1
20260902174553 79 0 2.0 9.0 0.00 0.00 0.00 33 1026.1
20260902174042 79 352 4.0 9.0 0.00 0.00 0.00 34 1026.1
20260902173542 78 341 1.0 8.0 0.00 0.00 0.00 35 1026.2
20260902173117 78 352 3.0 8.0 0.00 0.00 0.00 35 1026.3
20260902172541 78 0 2.0 6.0 0.00 0.00 0.00 38 1026.3
20260902172042 77 30 2.0 8.0 0.00 0.00 0.00 40 1026.4
20260902171605 77 315 4.0 9.0 0.00 0.00 0.00 39 1026.4
20260902171042 77 342 4.0 11.0 0.00 0.00 0.00 38 1026.4
20260902170542 77 339 3.0 11.0 0.00 0.00 0.00 40 1026.4
20260902170056 77 325 3.0 10.0 0.00 0.00 0.00 43 1026.5
20260902165542 76 342 2.0 10.0 0.00 0.00 0.00 46 1026.5
20260902165044 76 348 4.0 11.0 0.00 0.00 0.00 47 1026.4
20260902164557 77 317 4.0 11.0 0.00 0.00 0.00 48 1026.4
20260902164043 77 262 7.0 11.0 0.00 0.00 0.00 47 1026.4
20260902163607 78 309 3.0 8.0 0.00 0.00 0.00 47 1026.4
20260902163054 78 275 3.0 8.0 0.00 0.00 0.00 45 1026.4
20260902162542 77 296 3.0 8.0 0.00 0.00 0.00 49 1026.4
20260902162046 76 313 3.0 7.0 0.00 0.00 0.00 48 1026.2
20260902161553 75 271 2.0 8.0 0.00 0.00 0.00 49 1026.3
20260902161043 75 340 2.0 8.0 0.00 0.00 0.00 50 1026.2
20260902160543 74 296 3.0 8.0 0.00 0.00 0.00 51 1026.2
20260902160100 74 317 1.0 5.0 0.00 0.00 0.00 52 1026.1
20260902155542 73 298 0.0 5.0 0.00 0.00 0.00 53 1026.1
20260902155042 72 316 3.0 5.0 0.00 0.00 0.00 54 1026.1
20260902154554 72 352 2.0 5.0 0.00 0.00 0.00 56 1026.1
20260902154042 71 326 2.0 5.0 0.00 0.00 0.00 57 1026.1
20260902153542 70 313 1.0 6.0 0.00 0.00 0.00 59 1026.1
20260902153051 70 38 2.0 6.0 0.00 0.00 0.00 59 1026.1
20260902152541 69 342 2.0 5.0 0.00 0.00 0.00 61 1026.1
20260902152041 68 348 2.0 6.0 0.00 0.00 0.00 61 1026.1
20260902151552 68 343 2.0 6.0 0.00 0.00 0.00 62 1026.1
20260902151042 67 348 2.0 6.0 0.00 0.00 0.00 64 1026.1
20260902150542 67 325 3.0 6.0 0.00 0.00 0.00 64 1026.2
20260902150051 66 346 2.0 6.0 0.00 0.00 0.00 65 1026.2
20260902145543 66 308 2.0 4.0 0.00 0.00 0.00 66 1026.2
20260902145041 65 308 1.0 4.0 0.00 0.00 0.00 69 1026.3
20260902144554 65 308 1.0 4.0 0.00 0.00 0.00 69 1026.2
20260902144041 64 308 2.0 5.0 0.00 0.00 0.00 71 1026.2
20260902143543 64 308 2.0 6.0 0.00 0.00 0.00 72 1026.1
20260902143057 64 332 3.0 8.0 0.00 0.00 0.00 72 1026.1
20260902142543 64 338 3.0 8.0 0.00 0.00 0.00 73 1026.0
20260902142042 63 17 4.0 9.0 0.00 0.00 0.00 74 1026.0
20260902141605 63 347 5.0 9.0 0.00 0.00 0.00 74 1026.0
20260902141042 63 308 5.0 9.0 0.00 0.00 0.00 75 1025.8
20260902140543 63 326 4.0 6.0 0.00 0.00 0.00 75 1025.7
20260902140048 62 5 2.0 6.0 0.00 0.00 0.00 77 1025.6
20260902135541 62 348 4.0 9.0 0.00 0.00 0.00 77 1025.7
20260902135042 61 343 4.0 9.0 0.00 0.00 0.00 77 1025.5
20260902134549 61 336 3.0 8.0 0.00 0.00 0.00 78 1025.5
20260902134042 60 331 5.0 8.0 0.00 0.00 0.00 79 1025.5